Regional Weather Roundup
Issued by NWS Charleston, SC

Current Version | Previous Version | Text Only | Print | Product List | Glossary Off
Versions: 1 2 3 4 5 6 7 8 9 10 11 12 13 14 15 16 17 18 19 20 21 22 23 24 25 26 27 28 29 30 31 32 33 34 35 36 37 38 39 40 41 42 43 44 45 46 47 48 49 50
000 ASUS42 KCHS 030027 RWRCHS REGIONAL WEATHER ROUNDUP NATIONAL WEATHER SERVICE CHARLESTON SC 800 PM EDT TUE JUN 02 2015 NOTE: "FAIR" INDICATES FEW OR NO CLOUDS BELOW 12,000 FEET WITH NO SIGNIFICANT WEATHER AND/OR OBSTRUCTIONS TO VISIBILITY. NOT ALL STATIONS ARE QUALITY CONTROLLED BY THE NATIONAL WEATHER SERVICE. USE DATA WITH CAUTION...ESPECIALLY DEWPOINT OBSERVATIONS. SCZ027-030-031-034>040-042>050-030100- ...SOUTHEAST SOUTH CAROLINA... CITY SKY/WX TMP DP RH WIND PRES REMARKS N CHARLESTON CLOUDY 75 65 70 SW3 29.96F 6HR MIN TEMP: 72; 6HR MAX TEMP: 83; 6HR PCP: 0.24; WATERFRONT PAR N/A 79 73 82 S7 29.94R MOUNT PLEASANT FAIR 79 72 78 S8 29.94F JOHNS ISLAND CLEAR 79 72 78 S9 29.96F PINOPOLIS N/A 73 68 83 SW5 29.87S MONCKS CORNER FAIR 72 64 78 S3 29.94S SUMMERVILLE FAIR 70 70 100 SE8 29.94F BEAUFORT MCAS CLOUDY 75 71 87 SE6 29.95F THUNDER 6HR MIN TEMP: 74; 6HR MAX TEMP: 88; 6HR PCP: 0.04; BEAUFORT ARPT FAIR 77 72 83 CALM 29.95F THUNDER HILTON HEAD IS N/A N/A N/A N/A MISG N/A WALTERBORO DRIZZLE 70 68 94 S5 29.96R ALLENDALE CLOUDY 70 68 94 CALM 29.94R ...SOUTHERN MIDLANDS AND PEE DEE... CITY SKY/WX TMP DP RH WIND PRES REMARKS GEORGETOWN NOT AVBL KINGSTREE NOT AVBL ORANGEBURG CLOUDY 69 64 84 SE7 29.97R 6HR MIN TEMP: 67; 6HR MAX TEMP: 87; 6HR PCP: 0.02; BARNWELL FAIR 75 66 73 S6 29.95R AIKEN FAIR 79 61 53 SW5 29.97R MANNING FAIR 72 68 88 S3 29.95S COLUMBIA LGT RAIN 77 65 66 W5 29.93R 6HR MIN TEMP: 76; 6HR MAX TEMP: 88; 6HR PCP: TRACE; SUMTER CLOUDY 73 67 82 N5 29.93S 6HR MIN TEMP: 73; 6HR MAX TEMP: 88; 6HR PCP: TRACE; FLORENCE CLOUDY 74 69 85 NE8 29.97R 6HR MIN TEMP: 73; 6HR MAX TEMP: 86; 6HR PCP: TRACE; MYRTLE BEACH MOCLDY 79 70 73 S7 29.98 N MYRTLE BEACH CLOUDY 79 69 71 S7 29.97R 6HR MIN TEMP: 76; 6HR MAX TEMP: 81; 6HR PCP: TRACE; $$ GAZ063-065-086>088-099>101-113>116-118-119-134>141-150-030100- ...SOUTHEAST GEORGIA... CITY SKY/WX TMP DP RH WIND PRES REMARKS SAVANNAH ARPT CLOUDY 75 69 81 CALM 29.96R 6HR MIN TEMP: 71; 6HR MAX TEMP: 86; 6HR PCP: 0.13; HUNTER AAF CLOUDY 76 74 94 SW1 29.93S 6HR MIN TEMP: 71; 6HR MAX TEMP: 85; 6HR PCP: 0.01; FORT STEWART CLOUDY 75 68 78 NE6 29.93R STATESBORO CLOUDY 73 70 91 SE5 29.95R SYLVANIA CLOUDY 73 71 91 SE5 29.96R CLAXTON FAIR 72 70 94 CALM 29.95R ...CSRA...CENTRAL AND FAR SOUTHEAST GEORGIA... CITY SKY/WX TMP DP RH WIND PRES REMARKS THOMSON MOCLDY 82 72 72 CALM 29.97R AUGUSTA-BUSH CLOUDY 75 65 70 E3 29.91S 6HR MIN TEMP: 75; 6HR MAX TEMP: 88; AUGUSTA-DANIEL CLOUDY 79 63 57 S5 29.93R SWAINSBORO MOCLDY 72 66 83 S7 29.95F VIDALIA RAIN 72 70 94 SW6 29.95R EASTMAN CLOUDY 79 72 80 CALM 29.96R HAZLEHURST CLOUDY 72 71 96 S5 29.95S ALMA CLOUDY 73 64 73 E7 29.95S 6HR MIN TEMP: 73; 6HR MAX TEMP: 84; WAYCROSS TSTM 75 71 88 N9 29.97R JESUP FAIR 77 72 83 CALM 29.95R BAXLEY FAIR 73 68 83 W3 29.95R BRUNSWICK CLOUDY 70 68 94 S6 29.96R SAINT SIMONS NOT AVBL $$ SCZ027-028-034-036>038-045-046-048>050-GAZ119-141-030100- ...LAKE AND SUPPLEMENTAL COASTAL OBSERVATIONS... STATION/POSITION TIME TEMP WIND PRES WAVE SWELL AIR SEA DIR/SP/G HT/PER HT/PER/DIR (UTC) (F) (DEG/KT/KT) (MB) (FT/S) (FT/S/D) UPR LAKE MARION NOT AVBL WINYAH BAY 2345 78 190/ 10 1013.0S LAKE MURRAY 2300 78 30/ 3/ 8 1012.2R ACE BASIN NERRS NOT AVBL FORT PULASKI 0000 79 81 160/ 5/ 8 1014.8R SAPELO ISLAND 0000 74 CALM 1014.0S $$ ANZ835-935-AMZ111-154-330-350-352-354-370-450-454-472-030100- ...C-MAN AND BUOY OBSERVATIONS... STATION/POSITION TIME TEMP WIND PRES WAVE SWELL AIR SEA DIR/SP/G HT/PER HT/PER/DIR (UTC) (F) (DEG/KT/KT) (MB) (FT/S) (FT/S/D) BUOY 41004 2350 79 81 180/ 6/ 8 1014.4R 2/ 8 2/ 8 BUOY 41008 2350 78 79 180/ 10/ 14 1014.1R 2/ 8 2/110/ 8 FOLLY BEACH CMAN 0000 79 190/ 9/ 11 1014.6F CAPERS NEARSHORE 2308 79 200/ 10/ 12 1014.7R FRIPP NEARSHORE 2300 79 190/ 8/ 10 1014.2R STATION/POSITION TIME TEMP WIND PRES WAVE SWELL AIR SEA DIR/SP/G HT/PER HT/PER/DIR (UTC) (F) (DEG/KT/KT) (MB) (FT/S) (FT/S/D) 5E ST. MARYS GA 2321 81 N/A 3/ 8 FRYING PAN BUOY 2350 80 78 160/ 8/ 10 1015.5R 2/ 9 2/100/ 9 BUOY 41025 2350 78 82 210/ 8/ 8 1015.5F 2/ 8 2/100/ 8 CAPE LOOKOUT NC 0000 77 170/ 4/ 5 1015.3R BUOY 41002 2350 78 78 180/ 6/ 8 1016.4R 3/ 8 3/100/ 8 BUOY 41010 2320 79 81 140/ 8/ 10 1015.1R ST AUGUSTINE FL 0000 73 77 230/ 5/ 6 1015.6R $$

USA.gov is the U.S. government's official web portal to all federal, state and local government web resources and services.